Regional Weather Roundup
Issued by NWS

Home | Current Version | Previous Version | Text Only | Print | Product List | Glossary Off
Versions: 1 2 3 4 5 6 7 8 9 10 11 12 13 14 15 16 17 18 19 20 21 22 23 24 25 26 27 28 29 30 31 32 33 34 35 36 37 38 39 40 41 42 43 44 45 46 47 48 49 50

000
ASUS43 KDMX 240706
RWRIA

WEATHER ROUNDUP FOR IOWA
NATIONAL WEATHER SERVICE DES MOINES IA
100 AM CST FRI FEB 24 2017

NOTE: "FAIR" INDICATES FEW OR NO CLOUDS BELOW 12,000 FEET WITH NO
SIGNIFICANT WEATHER AND/OR OBSTRUCTIONS TO VISIBILITY.

* - THESE STATIONS ARE NOT NWS STATIONS...THUS NOT UNDER NWS
QUALITY CONTROL.  THEY ALSO DO NOT REPORT WEATHER SUCH
AS PRECIPITATION OR FOG.

IAZ001>003-012>014-020>022-031>034-043>046-240800-
   NORTHWEST IOWA

CITY           SKY/WX    TMP DP  RH WIND       PRES   REMARKS
CARROLL *      SNOW      34  34 100 NE25G36   29.64R VSB 1/2 WCI  21
CHEROKEE *     LGT SNOW  29  29 100 N17G23    29.72R WCI  17
DENISON *      SNOW      32  32 100 NE21G40   29.57F VSB 1/2 WCI  20
LE MARS *      LGT SNOW  28  27  93 NE21G31   29.73S VSB 1   WCI  15
ORANGE CITY *  CLOUDY    27  27 100 NE17G26   29.72F WCI  14
SHELDON *      MIX PCPN  27  27 100 N25G31    29.74S VSB 3/4 WCI  11
SIOUX CITY     SNOW      31  28  89 NE25G36   29.70R VSB 1/4 WCI  17
SPENCER        FOG       28  26  92 N30G38    29.73F VSB 1/2 WCI  12
STORM LAKE *   SNOW      28  28 100 NE26G39   29.68R VSB 1/2 WCI  13
$$

IAZ055>058-069>071-079>083-090>094-240800-
   SOUTHWEST IOWA

CITY           SKY/WX    TMP DP  RH WIND       PRES   REMARKS
ATLANTIC *     CLOUDY    34  34 100 N24G32    29.55F WCI  21
CLARINDA *     CLOUDY    37  36  93 N20G30    29.53S WCI  27
COUNCIL BLFS * CLOUDY    34  34 100 N22G30    29.55S WCI  22
CRESTON *      MIX PCPN  36  36 100 N23G36    29.50F WCI  24
HARLAN  *      LGT RAIN  32  32 100 NE28G36   29.58F WCI  18
LAMONI         LGT RAIN  43  42  97 NW18      29.46R FOG
RED OAK *      MOCLDY    34  34 100 NE21G28   29.52F WCI  22
SHENANDOAH *   CLOUDY    36  34  93 NE25G32   29.52F WCI  23
$$

IAZ047>049-059>061-072>074-084-240800-
   CENTRAL IOWA

CITY           SKY/WX    TMP DP  RH WIND       PRES   REMARKS
AMES           TSTM      35  35 100 W22G29    29.70R FOG     WCI  23
ANKENY *       MIX PCPN  37  36  93 NW18G39   29.64R WCI  27
BOONE *        MIX PCPN  34  34 100 N14G22    29.67R WCI  24
CHARITON *     FOG       39  39 100 NE9G21    29.46R VSB 1/4 WCI  33
DES MOINES     TSTM      40  38  93 N14G37    29.57R FOG     WCI  32
GRINNELL*      LGT RAIN  37  36  96 NE29G35   29.47F WCI  24
KNOXVILLE *    CLOUDY    39  37  93 NE20      29.44R FOG     WCI  30
MARSHALLTOWN   MIX PCPN  35  34  96 NE28G39   29.50F FOG     WCI  22
NEWTON *       CLOUDY    37  36  93 NE35      29.46S FOG     WCI  24
PELLA *        LGT RAIN  38  37  98 E18G26    29.46F WCI  28
PERRY *        LGT SNOW  34  33  96 N14       29.64R WCI  24
$$

IAZ004>006-015-016-023>025-035-036-240800-
   NORTH CENTRAL IOWA

CITY           SKY/WX    TMP DP  RH WIND       PRES   REMARKS
ALGONA *       FOG       28  28 100 N33G40    29.66R VSB<1/4 WCI  12
CLARION *      CLOUDY    34  34 100 NE33G43   29.59R FOG     WCI  19
ESTHERVILLE    FOG       26  26 100 N30       29.73S VSB 1/2 WCI  10
FORT DODGE *   CLOUDY    34  28  80 NE22G30   29.67R WCI  22
MASON CITY     SNOW      31  32 100 NE32G38   29.62F VSB 1/2 WCI  16
FOREST CITY *  LGT SNOW  32  32 100 NE24G31   29.63  WCI  19
WEBSTER CITY * HVY RAIN  34  32  93 NE21      29.63R WCI  22
IOWA FALLS *   LGT RAIN  34  33  95 NE24G36   29.55R WCI  21
$$

IAZ007>011-017>019-026>030-037>042-050>054-066-240800-
   NORTHEAST IOWA

CITY           SKY/WX    TMP DP  RH WIND       PRES   REMARKS
CEDAR RAPIDS   CLOUDY    36  36 100 NE21G30   29.52F WCI  25
CHARLES CITY * HVY RAIN  34  34 100 NE28G37   29.62S WCI  20
CLINTON *      CLOUDY    36  35  96 E22G29    29.54F WCI  25
DECORAH *      LGT SNOW  32  32 100 NE14G28   29.64F WCI  22
DUBUQUE        CLOUDY    34  34 100 NE21G33   29.59F WCI  22
MONTICELLO *   CLOUDY    36  34  93 NE16G30   29.56F WCI  26
OELWEIN *      LGT RAIN  34  34 100 NE28G36   29.57F WCI  20
WATERLOO       CLOUDY    34  32  92 NE24G31   29.57F FOG     WCI  21
$$

IAZ064-065-067-068-078-240800-
   EAST CENTRAL IOWA

CITY           SKY/WX    TMP DP  RH WIND       PRES   REMARKS
DAVENPORT      CLOUDY    37  35  92 E20G25    29.53F WCI  27
IOWA CITY      CLOUDY    38  35  89 NE12G21   29.53F WCI  30
MUSCATINE *    CLOUDY    39  37  93 NE18      29.50F WCI  30
QUAD CITIES    CLOUDY    41  36  82 E16       29.52F
$$

IAZ062-063-075>077-085>089-095>099-240800-
   SOUTHEAST IOWA

CITY           SKY/WX    TMP DP  RH WIND       PRES   REMARKS
BURLINGTON     MOCLDY    45  43  93 E12       29.44F FOG
FAIRFIELD *    CLOUDY    41  39  93 NE15G25   29.44F FOG
KEOKUK *       CLEAR     46  45  93 E9G16     29.42F FOG
OTTUMWA        CLOUDY    39  39 100 E17G30    29.43F FOG     WCI  30
WASHINGTON *   CLOUDY    37  37 100 NE20      29.48F WCI  27
$$

ABBREVIATIONS USED IN REMARKS
   TC - TEMPERATURES IN CELSIUS
  WCI - WIND CHILL INDEX
   HX - HEAT INDEX
  VSB - VISIBILITY
$$





USA.gov is the U.S. government's official web portal to all federal, state and local government web resources and services.